Date,TemperatureHighF,TemperatureAvgF,TemperatureLowF,DewpointHighF,DewpointAvgF,DewpointLowF,HumidityHigh,HumidityAvg,HumidityLow,PressureMaxIn,PressureMinIn,WindSpeedMaxMPH,WindSpeedAvgMPH,GustSpeedMaxMPH,PrecipitationSumIn
2013-8-1,89.2,74.5,63.3,70.0,65.2,61.8,95,75,47,29.93,29.73,18,5,0,2.68
2013-8-2,84.2,74.5,64.9,69.1,65.2,60.9,88,74,59,29.83,29.62,22,7,0,0.07
2013-8-3,82.2,70.9,62.4,65.4,60.4,57.2,84,70,55,29.99,29.83,12,6,0,0.00
2013-8-4,77.5,68.8,62.6,66.1,60.4,55.6,85,75,68,29.99,29.84,11,6,0,0.00
2013-8-5,89.2,76.0,68.5,73.3,69.3,64.5,94,81,58,29.86,29.65,12,5,0,0.00
2013-8-6,94.5,78.5,67.3,75.8,70.9,65.8,95,79,55,29.73,29.61,12,4,0,0.00
2013-8-7,85.6,76.2,68.9,71.7,65.2,59.7,92,71,43,29.82,29.64,11,4,0,0.00
2013-8-8,75.9,69.2,62.4,65.3,62.2,59.3,90,79,63,29.85,29.77,7,3,0,0.00
2013-8-9,82.4,72.8,63.0,67.6,63.9,58.1,91,75,58,29.97,29.84,9,4,0,0.00
2013-8-10,84.0,70.9,55.9,65.3,59.9,53.6,92,70,50,30.03,29.91,10,4,0,0.00
2013-8-11,87.1,75.2,62.2,70.0,64.2,57.3,85,70,53,29.96,29.82,11,5,0,0.00
2013-8-12,85.8,75.0,66.9,70.5,65.5,59.2,90,73,50,29.89,29.81,11,4,0,0.16
2013-8-13,79.5,70.6,60.8,61.0,58.7,56.4,86,68,47,29.99,29.89,9,3,0,0.00
2013-8-14,77.9,65.6,54.1,62.2,57.5,51.2,91,76,57,30.02,29.89,10,4,0,0.00
2013-8-15,71.1,63.4,59.9,62.8,58.7,57.2,92,85,74,29.92,29.82,12,6,0,0.85
2013-8-16,75.7,66.4,61.3,61.7,58.8,57.1,87,77,62,29.99,29.91,10,5,0,0.00
2013-8-17,79.0,68.3,58.1,61.4,58.1,53.5,93,72,51,30.03,29.92,9,4,0,0.00
2013-8-18,81.1,67.6,50.5,63.5,58.1,48.8,95,74,53,29.99,29.86,12,4,0,0.00
2013-8-19,85.8,72.9,60.3,69.5,64.2,58.0,93,76,57,29.90,29.74,15,6,0,0.00
2013-8-20,89.6,78.1,68.9,71.3,67.2,63.9,86,70,54,29.81,29.72,19,8,0,0.00
2013-8-21,91.8,79.2,68.9,72.7,67.7,63.5,83,69,52,29.84,29.77,14,7,0,0.00
2013-8-22,86.5,76.4,69.4,70.9,67.5,63.6,89,75,58,29.91,29.80,10,5,0,0.00
2013-8-23,90.3,78.0,68.0,72.2,68.5,65.6,93,75,51,29.91,29.79,12,5,0,0.00
2013-8-24,92.1,80.6,70.7,74.7,69.6,66.0,85,70,54,29.90,29.83,17,7,0,0.00
2013-8-25,94.3,82.2,70.2,74.6,70.5,66.1,87,69,52,29.97,29.88,14,8,0,0.00
2013-8-26,95.9,83.5,73.8,72.9,69.6,67.0,80,64,46,29.92,29.79,16,8,0,0.00
2013-8-27,95.2,83.3,73.2,73.2,67.8,62.0,72,61,45,29.81,29.74,18,10,0,0.00
2013-8-28,94.8,81.4,68.2,72.0,65.7,61.2,79,61,37,29.84,29.77,10,5,0,0.00
2013-8-29,97.2,81.9,68.4,75.2,70.2,64.6,92,70,42,29.83,29.72,14,4,0,0.00
2013-8-30,99.7,84.0,70.0,74.0,69.6,64.2,84,65,40,29.73,29.63,10,4,0,0.00
2013-8-31,94.5,80.5,71.2,74.5,70.7,66.6,92,74,44,29.70,29.60,8,3,0,0.00